Printer-friendly version
Follow the MPC on Twitter Follow the MPC on Facebook The MPC blog
Minor Planet Center

MPEC 2007-V96 : 2007 VM184

The following Minor Planet Electronic Circular may be linked-to from your own Web pages, but must not otherwise be redistributed electronically.

A form allowing access to any MPEC is at the bottom of this page.


Read MPEC 2007-V95 Read MPEC 2007-V97


M.P.E.C. 2007-V96                                Issued 2007 Nov. 13, 14:38 UT

     The Minor Planet Electronic Circulars contain information on unusual
         minor planets and routine data on comets.  They are published
   on behalf of Commission 20 of the International Astronomical Union by the
          Minor Planet Center, Smithsonian Astrophysical Observatory,
                          Cambridge, MA 02138, U.S.A.

             Prepared using the Tamkin Foundation Computer Network

                              MPC@CFA.HARVARD.EDU
          URL http://www.cfa.harvard.edu/iau/mpc.html  ISSN 1523-6714

                                  2007 VM184

Observations:
     K07VI4M* C2007 11 12.26912 04 21 22.82 -07 05 04.2          19.3 V EV096703
     K07VI4M  C2007 11 12.27694 04 21 21.24 -07 05 02.4          19.8 V EV096703
     K07VI4M  C2007 11 12.28474 04 21 19.54 -07 05 00.2          19.5 V EV096703
     K07VI4M  C2007 11 12.29248 04 21 17.92 -07 04 58.5          20.1 V EV096703
     K07VI4M  C2007 11 12.37701 04 20 59.23 -07 04 44.6          19.7 V EV096703
     K07VI4M  C2007 11 12.37771 04 20 59.11 -07 04 45.7          19.7 V EV096703
     K07VI4M  C2007 11 12.37841 04 20 59.01 -07 04 46.0          19.6 V EV096703
     K07VI4M  C2007 11 12.37911 04 20 58.78 -07 04 45.3          19.9 V EV096703
     K07VI4M  C2007 11 13.34388 04 17 28.12 -07 01 29.5          19.1 R EV096711
     K07VI4M  C2007 11 13.34937 04 17 26.77 -07 01 27.9          19.3 R EV096711
     K07VI4M IC2007 11 13.35487 04 17 25.41 -07 01 27.1                 EV096711
     K07VI4M  C2007 11 13.36403 04 17 23.49 -07 01 25.6          19.3 V EV096703
     K07VI4M  C2007 11 13.36687 04 17 22.84 -07 01 25.2          19.4 V EV096703
     K07VI4M  C2007 11 13.36967 04 17 22.16 -07 01 24.7          19.4 V EV096703
     K07VI4M  C2007 11 13.37248 04 17 21.48 -07 01 23.8          19.1 V EV096703
     K07VI4M  C2007 11 13.44087 04 17 05.07 -07 01 06.4          19.8 V EV096291
     K07VI4M  C2007 11 13.44478 04 17 04.15 -07 01 05.5          19.8 V EV096291
     K07VI4M  C2007 11 13.45980 04 17 00.52 -07 01 01.5          19.8 V EV096291

Observer details:
291 LPL/Spacewatch II.  Observer J. V. Scotti.  1.8-m f/2.7 reflector + CCD.
703 Catalina Sky Survey.  Observer A. R. Gibbs.  Measurers E. C. Beshore,
    A. Boattini, G. J. Garradd, A. R. Gibbs, A. D. Grauer, R. E. Hill,
    R. A. Kowalski, S. M. Larson, R. H. McNaught.  0.68-m Schmidt + CCD.
711 McDonald Observatory.  Observer J. G. Ries.  0.76-m reflector + CCD
    + prime-focus corrector.

Orbital elements:
2007 VM184                                          PHA, Earth MOID = 0.0335 AU
Epoch 2007 Oct. 27.0 TT = JDT 2454400.5                 MPC
M 287.46771              (2000.0)            P               Q
n   0.73339968     Peri.  109.57078     -0.91963793     -0.11278798
a   1.2177989      Node    65.52324     -0.10850242     -0.84765245
e   0.5446828      Incl.   24.41701     +0.37748286     -0.51842472
P   1.34           H   20.8           G   0.15           U   9
Residuals in seconds of arc
071112 703  1.5-  1.1-    071112 703  0.8+  0.7-    071113 703  0.4+  0.2-
071112 703  0.3+  0.5-    071112 703  0.4-  0.1-    071113 703  0.3+  0.4-
071112 703  0.2+  0.5+    071113 711  0.2+  0.1+    071113 703  0.2+  0.2-
071112 703  1.3+  1.0+    071113 711  0.3-  0.4+    071113 291  0.0   0.0
071112 703  0.6-  1.0+    071113 711  0.9-  0.1-    071113 291  0.3+  0.1-
071112 703  0.1-  0.2-    071113 703  0.1-  0.1+    071113 291  0.2-  0.1+

Ephemeris:
2007 VM184               a,e,i = 1.22, 0.54, 24                  q = 0.5545
Date    TT    R. A. (2000) Decl.     Delta      r     Elong.  Phase     V
2007 11 06    04 37.97   -07 05.2    0.350    1.290   143.4    27.3    20.3
2007 11 16    04 06.09   -06 45.9    0.240    1.207   152.5    22.2    19.2
2007 11 26    02 47.08   -03 16.1    0.150    1.118   149.3    26.8    18.1
2007 12 06    23 50.35   +07 26.1    0.113    1.024   107.2    66.7    18.5
2007 12 16    21 03.57   +14 08.2    0.157    0.926    63.9   107.3    20.6

Timothy B. Spahr             (C) Copyright 2007 MPC           M.P.E.C. 2007-V96

Read MPEC 2007-V95 Read MPEC 2007-V97


MPEC number:

Enter an MPEC number in one of the following forms:

  • 1997-B01 (the full form)
  • J97B01 (the packed version of the full form)
  • B01 (the abbreviated form)

Valid HTML 4.01!